When you browse on this site, cookies collect data to enhance your experience and personalize the content and advertising you see.
Visit our Privacy Policy to learn more. By continuing to use the site, you agree to this use of cookies and data.
  • In United Kingdom
  • List of Countries
  • For 7 days
  • Water Temperature
  • Satellite Maps
  • Weather Map
  • Weather Widgets
  • user-avatar
    Login

    Hourly Weather Jewłach

    Today, 23 April, Tuesday

    Time Temperature Precipitation Wind Pressure Humidity
    00:00 +6°C° 0.3 mm 4 mps 765 mmHg 82%
    01:00 +7°C° 0.2 mm 3 mps 766 mmHg 82%
    02:00 +7°C° 0.2 mm 3 mps 766 mmHg 82%
    03:00 +7°C° 0 mm 2 mps 766 mmHg 82%
    04:00 +7°C° 0.2 mm 2 mps 766 mmHg 82%
    05:00 +8°C° 0.2 mm 1 mps 766 mmHg 82%
    06:00 +8°C° 0.2 mm 1 mps 767 mmHg 83%
    07:00 +9°C° 0.1 mm 1 mps 767 mmHg 78%
    08:00 +10°C° 0.1 mm 1 mps 767 mmHg 74%
    09:00 +10°C° 0 mm 2 mps 767 mmHg 67%
    10:00 +11°C° 0 mm 3 mps 767 mmHg 62%
    11:00 +13°C° 0 mm 4 mps 767 mmHg 57%
    12:00 +14°C° 0 mm 4 mps 767 mmHg 52%
    13:00 +14°C° 0 mm 5 mps 767 mmHg 50%
    14:00 +15°C° 0 mm 5 mps 767 mmHg 48%
    15:00 +16°C° 0 mm 5 mps 767 mmHg 46%
    16:00 +15°C° 0 mm 4 mps 767 mmHg 48%
    17:00 +14°C° 0 mm 4 mps 767 mmHg 51%
    18:00 +14°C° 0 mm 4 mps 768 mmHg 54%
    19:00 +12°C° 0 mm 4 mps 768 mmHg 58%
    20:00 +11°C° 0 mm 3 mps 769 mmHg 63%
    21:00 +10°C° 0 mm 3 mps 769 mmHg 68%
    22:00 +10°C° 0 mm 3 mps 769 mmHg 70%
    23:00 +9°C° 0 mm 2 mps 770 mmHg 73%

    Tomorrow, 24 April, Wednesday

    Time Temperature Precipitation Wind Pressure Humidity
    00:00 +9°C° 0 mm 2 mps 770 mmHg 76%
    01:00 +8°C° 0 mm 2 mps 770 mmHg 78%
    02:00 +9°C° 0 mm 1 mps 770 mmHg 79%
    03:00 +9°C° 0 mm 1 mps 770 mmHg 80%
    04:00 +9°C° 0 mm 1 mps 770 mmHg 80%
    05:00 +9°C° 0 mm 1 mps 771 mmHg 79%
    06:00 +9°C° 0 mm 1 mps 771 mmHg 78%
    07:00 +11°C° 0 mm 1 mps 770 mmHg 70%
    08:00 +13°C° 0 mm 2 mps 770 mmHg 62%
    09:00 +14°C° 0 mm 2 mps 770 mmHg 54%
    10:00 +15°C° 0 mm 2 mps 769 mmHg 51%
    11:00 +16°C° 0 mm 2 mps 769 mmHg 48%
    12:00 +17°C° 0 mm 2 mps 769 mmHg 45%
    13:00 +18°C° 0 mm 2 mps 768 mmHg 43%
    14:00 +20°C° 0 mm 1 mps 768 mmHg 41%
    15:00 +20°C° 0 mm 1 mps 767 mmHg 39%
    16:00 +20°C° 0 mm 1 mps 767 mmHg 42%
    17:00 +18°C° 0 mm 2 mps 767 mmHg 45%
    18:00 +18°C° 0 mm 2 mps 767 mmHg 48%
    19:00 +17°C° 0 mm 2 mps 768 mmHg 51%
    20:00 +15°C° 0 mm 2 mps 768 mmHg 54%
    21:00 +14°C° 0 mm 2 mps 769 mmHg 57%
    22:00 +14°C° 0 mm 2 mps 769 mmHg 58%
    23:00 +12°C° 0 mm 3 mps 769 mmHg 60%

    Day after tomorrow, 25 April, Thursday

    Time Temperature Precipitation Wind Pressure Humidity
    00:00 +11°C° 0 mm 3 mps 769 mmHg 61%
    01:00 +12°C° 0 mm 2 mps 769 mmHg 61%
    02:00 +10°C° 0 mm 2 mps 769 mmHg 61%
    03:00 +11°C° 0 mm 1 mps 769 mmHg 61%
    04:00 +11°C° 0 mm 1 mps 769 mmHg 61%
    05:00 +11°C° 0 mm 1 mps 769 mmHg 61%
    06:00 +11°C° 0 mm 1 mps 770 mmHg 61%
    07:00 +13°C° 0 mm 2 mps 770 mmHg 56%
    08:00 +15°C° 0 mm 2 mps 769 mmHg 51%
    09:00 +16°C° 0 mm 2 mps 769 mmHg 46%
    10:00 +17°C° 0 mm 2 mps 769 mmHg 43%
    11:00 +19°C° 0 mm 1 mps 769 mmHg 40%
    12:00 +20°C° 0 mm 1 mps 769 mmHg 38%
    13:00 +21°C° 0 mm 1 mps 768 mmHg 36%
    14:00 +21°C° 0 mm 1 mps 768 mmHg 34%
    15:00 +22°C° 0 mm 1 mps 767 mmHg 32%
    16:00 +20°C° 0 mm 2 mps 768 mmHg 35%
    17:00 +20°C° 0 mm 2 mps 768 mmHg 38%
    18:00 +19°C° 0 mm 3 mps 768 mmHg 41%
    19:00 +18°C° 0 mm 3 mps 768 mmHg 42%
    20:00 +17°C° 0 mm 3 mps 769 mmHg 43%
    21:00 +14°C° 0 mm 3 mps 769 mmHg 44%
    22:00 +13°C° 0 mm 3 mps 769 mmHg 47%
    23:00 +13°C° 0 mm 3 mps 769 mmHg 50%

    26 April, Friday

    Time Temperature Precipitation Wind Pressure Humidity
    00:00 +12°C° 0 mm 3 mps 769 mmHg 53%
    01:00 +12°C° 0 mm 2 mps 769 mmHg 52%
    02:00 +12°C° 0 mm 2 mps 769 mmHg 52%
    03:00 +11°C° 0 mm 1 mps 769 mmHg 52%
    04:00 +12°C° 0 mm 1 mps 769 mmHg 53%
    05:00 +12°C° 0 mm 1 mps 769 mmHg 53%
    06:00 +11°C° 0 mm 0 mps 769 mmHg 54%
    07:00 +14°C° 0 mm 1 mps 769 mmHg 48%
    08:00 +15°C° 0 mm 1 mps 769 mmHg 42%
    09:00 +18°C° 0 mm 1 mps 768 mmHg 36%
    10:00 +19°C° 0 mm 1 mps 768 mmHg 34%
    11:00 +20°C° 0 mm 1 mps 767 mmHg 33%
    12:00 +21°C° 0 mm 1 mps 767 mmHg 31%
    13:00 +21°C° 0 mm 2 mps 767 mmHg 29%
    14:00 +23°C° 0 mm 2 mps 766 mmHg 28%
    15:00 +22°C° 0 mm 3 mps 766 mmHg 26%
    16:00 +21°C° 0 mm 3 mps 766 mmHg 30%
    17:00 +21°C° 0 mm 3 mps 766 mmHg 33%
    18:00 +20°C° 0 mm 3 mps 766 mmHg 37%
    19:00 +18°C° 0 mm 3 mps 766 mmHg 39%
    20:00 +17°C° 0 mm 3 mps 767 mmHg 42%
    21:00 +15°C° 0 mm 4 mps 768 mmHg 45%
    22:00 +14°C° 0 mm 3 mps 768 mmHg 47%
    23:00 +13°C° 0 mm 3 mps 767 mmHg 50%

    27 April, Saturday

    Time Temperature Precipitation Wind Pressure Humidity
    00:00 +12°C° 0 mm 3 mps 767 mmHg 52%
    01:00 +11°C° 0 mm 3 mps 767 mmHg 53%
    02:00 +12°C° 0 mm 2 mps 767 mmHg 54%
    03:00 +11°C° 0 mm 1 mps 767 mmHg 54%
    04:00 +11°C° 0 mm 1 mps 767 mmHg 55%
    05:00 +11°C° 0 mm 0 mps 767 mmHg 56%
    06:00 +11°C° 0 mm 0 mps 767 mmHg 57%
    07:00 +13°C° 0 mm 0 mps 767 mmHg 52%
    08:00 +15°C° 0 mm 1 mps 767 mmHg 46%
    09:00 +18°C° 0 mm 1 mps 766 mmHg 40%
    10:00 +19°C° 0 mm 1 mps 766 mmHg 37%
    11:00 +19°C° 0 mm 2 mps 765 mmHg 34%
    12:00 +21°C° 0 mm 3 mps 765 mmHg 32%
    13:00 +21°C° 0 mm 3 mps 764 mmHg 31%
    14:00 +22°C° 0 mm 4 mps 764 mmHg 29%
    15:00 +23°C° 0 mm 4 mps 763 mmHg 28%
    16:00 +22°C° 0 mm 4 mps 763 mmHg 32%
    17:00 +21°C° 0 mm 4 mps 763 mmHg 36%
    18:00 +20°C° 0 mm 3 mps 763 mmHg 40%
    19:00 +18°C° 0 mm 4 mps 764 mmHg 46%
    20:00 +16°C° 0 mm 5 mps 764 mmHg 52%
    21:00 +14°C° 0 mm 5 mps 765 mmHg 58%
    22:00 +13°C° 0 mm 4 mps 765 mmHg 60%
    23:00 +12°C° 0 mm 3 mps 765 mmHg 61%

    28 April, Sunday

    Time Temperature Precipitation Wind Pressure Humidity
    00:00 +12°C° 0 mm 2 mps 764 mmHg 63%
    01:00 +12°C° 0 mm 2 mps 764 mmHg 64%
    02:00 +12°C° 0 mm 1 mps 764 mmHg 64%
    03:00 +11°C° 0 mm 1 mps 763 mmHg 65%
    04:00 +11°C° 0 mm 1 mps 763 mmHg 66%
    05:00 +12°C° 0 mm 1 mps 763 mmHg 67%
    06:00 +12°C° 0 mm 2 mps 763 mmHg 68%
    07:00 +14°C° 0 mm 2 mps 762 mmHg 60%
    08:00 +16°C° 0 mm 3 mps 762 mmHg 52%
    09:00 +18°C° 0 mm 3 mps 761 mmHg 45%
    10:00 +19°C° 0 mm 3 mps 761 mmHg 41%
    11:00 +21°C° 0 mm 2 mps 760 mmHg 36%
    12:00 +23°C° 0 mm 2 mps 760 mmHg 32%
    13:00 +24°C° 0 mm 2 mps 759 mmHg 31%
    14:00 +24°C° 0 mm 1 mps 759 mmHg 30%
    15:00 +25°C° 0 mm 1 mps 759 mmHg 29%
    16:00 +24°C° 0 mm 1 mps 759 mmHg 32%
    17:00 +24°C° 0 mm 1 mps 759 mmHg 36%
    18:00 +23°C° 0 mm 1 mps 759 mmHg 40%
    19:00 +22°C° 0 mm 1 mps 760 mmHg 42%
    20:00 +21°C° 0 mm 1 mps 760 mmHg 44%
    21:00 +20°C° 0 mm 1 mps 761 mmHg 46%
    22:00 +20°C° 0 mm 1 mps 761 mmHg 46%
    23:00 +18°C° 0 mm 2 mps 761 mmHg 47%
    Show more